STARLINK-11140, 60039

Orbit data source: Space-Track

STARLINK-11140, 60039 is a payload satellite owned by SpaceX/Seattle (US) in LEO that was launched on Sat, 08 Jun 2024 UTC via an FALCON 9 launch vehicle from the Air Force Western Test Range (AFWTR). Payload-class satellites include a variety of spacecraft equipped with specific instruments for various scientific and technological missions. These include communications satellites like Starlink; space stations such as the ISS; scientific satellites like the Hubble; Earth observation satellites from companies like Planet Labs, Umbra, and HawkEye 360; GPS; miniature CubeSats for education and research; and military/defense satellites.

Loading next visibility...
Identifier
60039, 2024-112B
Orbit
LEO
Country
Flag of USUS
Related business
Manufacturer
SpaceX/Seattle
Mission
Operational Commercial Communications
Bus & Motor
STARLINK V2MD, Unknown motor
Mass
960 kg wet, ~910 kg dry
Launch date (UTC)
2024-06-08 (2 years ago)
Launch vehicle
FALCON 9
Launch site
Air Force Western Test Range (AFWTR)
Object type
Payload
Rocket body
Debris
Shape & HBR
Box + 2 Pan, 18.1 m
Radar Cross Section
36.964 m², Large (>1 m²)

Expand to show TLE details & history
Last TLE update: 3 days ago

TLE from 3 days ago
0 STARLINK-11140
1 60039U 24112B   26170.09166108  .00000233  00000-0  67845-5 0  9998
2 60039  53.1596 126.6679 0001328  70.7292 289.3870 15.69702585116909
Epoch: 2026-06-19T02:11Z
TLE epoch observation values (Epoch: 2026-06-19T02:11:59.517Z)
Latitude
0.00003°
Longitude
-173.65567°
Altitude
360.366 km
Speed
7.694 km/s
True Right ascension
08h 26m 40s
True Declination
0° 00' 00"
Sunlit
Object was in daylight at epoch
Visualization orbit readout
Latitude
Unknown
Longitude
Unknown
Altitude
Unknown
Speed
Unknown
Apparent Right ascension
Unknown
Apparent Declination
Unknown
Sunlit
N/A
Visualization observer readout
Local Sidereal Time
21:28:29
Azimuth
Unknown
Elevation
Unknown
Doppler factor
Unknown
Orbital elements
Apogee altitude
360.904 km
Perigee altitude
359.114 km
Semi-major axis
6,738.146 km
Eccentricity
0.00013
Inclination
53.1596°
RAAN
126.6679°
Arg. of periapsis
70.7292°
True anomaly
289.37264°
Mean anomaly
289.387°
Eccentric anomaly
289.37982°
Mean motion
3.92403 °/min
Orbital period
91.74 mins
BSTAR
0.0000067845
Loading maneuver chart data...
Computing Atmospheric mass density...
Loading historical data...
Loading historical data...
Loading historical data...
Loading historical data...
Loading historical data...
Loading historical data...
Loading historical data...

Documentation

Showing up to 5 results
|